Regional Weather Roundup
Issued by NWS

Home | Current Version | Previous Version | Text Only | Print | Product List | Glossary On
Versions: 1 2 3 4 5 6 7 8 9 10 11 12 13 14 15 16 17 18 19 20 21 22 23 24 25 26 27 28 29 30 31 32 33 34 35 36 37 38 39 40 41 42 43 44 45 46 47 48 49 50
000
ASUS43 KDTX 250701
RWRMI
MICHIGAN HOURLY REGIONAL WEATHER ROUNDUP
NATIONAL WEATHER SERVICE DETROIT/PONTIAC MI
300 AM EDT WED APR 25 2018

NOTE: "FAIR" INDICATES FEW OR NO CLOUDS BELOW 12,000 FEET WITH NO
SIGNIFICANT WEATHER AND/OR OBSTRUCTION TO VISIBILITY.

MIZ047>049-052>055-059>063-066>070-074>076-081>083-250800-
SOUTHEAST LOWER MICHIGAN

CITY           SKY/WX    TMP DP  RH WIND       PRES   REMARKS
ADRIAN         CLOUDY    50  50 100 N6        29.92F FOG
ALMA           HVY RAIN  49  49  99 N14G21    29.97F
ANN ARBOR      CLOUDY    51  50  96 N5        29.91F FOG
BAD AXE        CLOUDY    51  47  87 NE3       29.95F FOG
CARO           CLOUDY    50  48  94 N3        29.94F FOG
DETROIT CITY   CLOUDY    49  48  97 NE5       29.92F FOG
DETROIT        LGT RAIN  51  48  89 N5        29.92F FOG
FLINT          CLOUDY    50  49  96 N6        29.94F
GROSSE ILE     CLOUDY    50  49  98 N3        29.91F FOG
HILLSDALE      FOG       50  48  93 NW5       29.92F VSB 1/2
HOWELL         CLOUDY    50  49  99 CALM      29.93F FOG

CITY           SKY/WX    TMP DP  RH WIND       PRES   REMARKS
JACKSON        CLOUDY    52  51  97 NW5       29.93F FOG
LAMBERTVILLE   CLOUDY    51  48  92 CALM      29.91F FOG
LANSING        CLOUDY    51  51 100 NW5       29.95F FOG
LAPEER         DRIZZLE   50  49  97 CALM      29.93F
MASON          CLOUDY    52  49  89 NW6       29.94F FOG
MT. CLEMENS    LGT RAIN  50  50 100 CALM      29.91F
PONTIAC        LGT RAIN  50  50 100 CALM      29.91F
PORT HOPE        N/A     41  41 100 N3        29.94F
PORT HURON     LGT RAIN  50  48  93 CALM      29.93F
TRI CITIES     CLOUDY    49  47  93 N7        29.96F FOG
MIDLAND        RAIN      47  47  98 NW12G17   29.97F
TROY           DRIZZLE   51  49  96 E3        29.93F
SAGINAW HB     CLOUDY    50  48  93 N3        29.95F FOG
$$
MIZ043>046-050>051-056>058-064>065-071>073-077>080-250800-
SOUTHWEST LOWER MICHIGAN

CITY           SKY/WX    TMP DP  RH WIND       PRES   REMARKS
BATTLE CREEK   CLOUDY    52  51  97 N7        29.96F FOG
BENTON HARBOR  CLOUDY    46  42  86 VRB7      29.99S
BIG RAPIDS     CLOUDY    42  37  80 N8        30.02R
COLDWATER      CLOUDY    51  51 100 NW5       29.94F FOG
FREMONT        CLOUDY    45  31  57 N10       30.03R
HOLLAND        CLOUDY    53  49  86 N7        29.99F
GRAND RAPIDS   CLOUDY    53  51  93 N8        29.97F
IONIA          CLOUDY    52  51  97 N7        29.95F
KALAMAZOO      CLOUDY    53  51  93 N9        29.96F FOG
LUDINGTON      MOCLDY    42  32  67 N7        30.07R
MARSHALL       CLOUDY    51  51  98 NW3       29.94F FOG
MOUNT PLEASANT CLOUDY    46  44  94 N9G16     29.99S
MUSKEGON       CLOUDY    49  35  58 N15       30.03R
SOUTH HAVEN    MOCLDY    46  44  91 N3        29.98F
$$
MIZ016>042-250800-
NORTHERN LOWER MICHIGAN

CITY           SKY/WX    TMP DP  RH WIND       PRES   REMARKS
ALPENA         LGT RAIN  39  38  96 W3        30.00F
BEAVER ISLAND  LGT RAIN  40  33  75 CALM      30.08F
BELLAIRE       CLOUDY    42  32  67 N6        30.07F
CADILLAC       FAIR      38  31  75 N8        30.03F WCI  33
CHARLEVOIX     LGT RAIN  38  34  84 NW3       30.11F
FRANKFORT      CLOUDY    42  32  69 N9        30.10S
GAYLORD        CLOUDY    40  29  64 VRB5      30.02F
HARBOR SPRINGS CLOUDY    42  32  68 NW6       30.05F
HOUGHTON LAKE  CLOUDY    41  37  86 CALM      30.02S
MANISTEE       FAIR      43  30  60 N9        30.08F
OSCODA         CLOUDY    43  40  90 NW6       29.99F
PELLSTON       CLOUDY    43  33  68 NW8       30.05F
ROGERS CITY    LGT RAIN  41  32  71 NW8       30.02F
TRAVERSE CITY  MOCLDY    42  31  64 NW9       30.07F
$$
MIZ007>008-015-250800-
EASTERN UPPER MICHIGAN

CITY           SKY/WX    TMP DP  RH WIND       PRES   REMARKS
KINROSS        LGT RAIN  39  35  86 NW10      30.04F WCI  32
MACKINAC ISLAN CLOUDY    41  34  76 N12       30.03F
NEWBERRY       FAIR      36  32  87 NW6       30.07F WCI  31
MUNISING         N/A     35  31  85 NW12      30.14S WCI  27
$$
MIZ004>006-011>014-085-250800-
CENTRAL UPPER MICHIGAN

CITY           SKY/WX    TMP DP  RH WIND       PRES   REMARKS
MANISTIQUE     FAIR      34  31  87 NW8       30.10F WCI  27
ESCANABA       FAIR      35  27  72 NW5       30.15F WCI  31
MENOMINEE      FAIR      39  37  92 N5        30.16S
SAWYER-GWINN   FAIR      33  26  77 N15       30.15F WCI  23
$$
MIZ001>003-009>011-084-250800-
WESTERN UPPER MICHIGAN

CITY           SKY/WX    TMP DP  RH WIND       PRES   REMARKS
IRON MOUNTAIN  FAIR      34  31  88 NW9       30.15S WCI  27
HOUGHTON       FAIR      34  23  64 N13       30.21R WCI  25
COPPER HARBOR    N/A     35  28  75 NE12      30.21F WCI  27
IRONWOOD       FAIR      26  24  92 CALM      30.24F
$$

ABBREVIATIONS USED IN REMARKS
   TC - TEMPERATURE IN CELSIUS
  WCI - WIND CHILL INDEX
   HX - HEAT INDEX
  VSB - VISIBILITY





USA.gov is the U.S. government's official web portal to all federal, state and local government web resources and services.